SCP
0 0 0 0 0 0 0 0 0 0 0 0 0 0 0 0 0 0 0 0 0 0 1 1 1 0 0 0 0 0 0 0 0 0 0 0 0 1 2 2 1 1 0 0
0 0 0 0 0 0 0 0 0 0 0 0 0 0 0 0 0 0 0 0 0 0 0 1 0 0 0 0 0 0 0 0 0 0 0 0 0 1 1 2 1 1 0 0
0 0 0 0 0 0 0 0 0 0 0 0 0 0 0 0 0 0 0 0 0 0 0 0 0 0 0 0 0 0 0 0 0 0 0 0 0 0 1 1 1 0 0 0
0 0 0 0 0 0 0 0 0 0 0 0 0 0 0 0 0 0 0 0 0 0 0 0 0 0 0 0 0 0 0 0 0 0 0 0 0 0 0 1 1 0 0 0
0 0 0 0 0 0 0 0 0 0 0 0 0 0 0 0 0 0 0 0 0 0 0 0 0 0 0 0 0 0 0 0 0 0 0 0 0 0 0 1 1 0 0 0
0 0 0 0 0 0 0 0 0 0 0 0 0 0 0 0 0 0 0 0 0 0 0 0 0 0 0 0 0 0 0 0 0 0 0 0 0 0 0 0 1 1 0 0
0 0 0 0 0 0 0 0 0 0 0 0 0 0 0 0 0 0 0 0 0 0 0 0 0 0 0 0 0 0 0 0 0 0 0 0 0 0 0 0 0 1 0 0
0 0 0 0 0 0 0 0 0 0 0 0 0 0 0 0 0 0 0 0 0 0 0 0 0 0 0 0 0 0 0 0 0 0 0 0 0 0 0 0 0 0 0 0
0 0 0 0 0 0 0 0 0 0 0 0 0 0 0 0 0 0 0 0 0 0 0 0 0 0 0 0 0 0 0 0 0 0 0 0 0 0 0 0 0 0 0 0
0 0 0 0 0 0 0 0 0 0 0 0 0 0 0 0 0 0 0 0 0 0 0 0 0 0 0 0 0 0 0 0 0 0 0 0 0 0 0 0 0 0 0 0
0 0 0 0 0 0 0 0 0 0 0 0 0 0 0 0 0 0 0 0 0 0 0 0 0 0 0 0 0 0 0 0 0 0 0 0 0 0 0 0 0 0 0 0
0 0 0 0 0 0 0 0 0 0 0 0 0 0 0 0 0 0 0 0 0 0 0 0 0 0 0 0 0 0 0 0 0 0 0 0 0 0 0 0 0 0 0 0
0 0 0 0 0 0 0 0 0 0 0 0 0 0 0 0 0 0 0 0 0 0 0 0 0 0 0 0 0 0 0 0 0 0 0 0 0 0 0 0 0 0 0 0
0 0 0 0 0 0 0 0 0 0 0 0 0 0 0 0 0 0 0 0 0 0 0 0 0 0 0 0 0 0 0 0 0 0 0 0 0 0 0 0 0 0 0 0
0 0 0 0 0 0 0 0 0 0 0 0 0 0 0 0 0 0 0 0 0 0 0 0 0 0 0 0 0 0 0 0 0 0 0 0 0 0 0 0 0 0 0 0
0 0 0 0 0 0 0 0 0 0 0 0 0 0 0 0 0 0 0 0 0 0 0 0 0 0 0 0 0 0 0 0 0 0 0 0 0 0 0 0 0 0 0 0
0 0 0 0 0 0 0 0 0 0 0 0 0 0 0 0 0 0 0 0 0 0 0 0 0 0 0 0 0 0 0 0 0 0 0 0 0 0 0 0 0 0 0 0
0 0 0 0 0 0 0 0 0 0 0 0 0 0 0 0 0 0 0 0 0 0 0 0 0 0 0 0 0 0 0 0 0 0 0 0 0 0 0 0 0 0 0 0
0 0 0 0 0 0 0 0 0 0 0 0 0 0 0 0 0 0 0 0 0 0 0 0 0 0 0 0 0 0 0 0 0 0 0 0 0 0 0 0 0 0 0 0
0 0 0 0 0 0 0 0 0 0 0 0 0 0 0 0 0 0 0 0 0 0 0 0 0 0 0 0 0 0 0 0 0 0 0 0 0 0 0 0 0 0 0 0
0 0 0 0 0 0 0 0 0 0 0 0 0 0 0 0 0 0 0 0 0 0 0 0 0 0 0 0 0 0 0 0 0 0 0 0 0 0 0 0 0 0 0 0
0 0 0 0 0 0 0 0 0 0 0 0 0 0 0 0 0 0 0 0 0 0 0 0 0 0 0 0 0 0 0 0 0 0 0 0 0 0 0 0 0 0 0 0
0 0 0 0 0 0 0 0 0 0 0 0 0 0 0 0 0 0 0 0 0 0 0 0 0 0 0 0 0 0 0 0 0 0 0 0 0 0 0 0 0 0 0 0
0 0 0 0 0 0 0 0 0 0 0 0 0 0 0 0 0 0 0 0 0 0 0 0 0 0 0 0 0 0 0 0 0 0 0 0 0 0 0 0 0 0 0 0
0 0 0 0 0 0 0 0 0 0 0 0 0 0 0 0 0 0 0 0 0 0 0 0 0 0 0 0 0 0 0 0 0 0 0 0 0 0 0 0 0 0 0 0
0 0 0 0 0 0 0 0 0 0 0 0 0 0 0 0 0 0 0 0 0 0 0 0 0 0 0 0 0 0 0 0 0 0 0 0 0 0 0 0 0 0 0 0
Wind_Speed
1 3 3 6 6 4 3 3 5 5 3 2 6 10 10 6 5 5 5 4 4 4 3 2 3 3 4 3 4 4 4 3 3 3 2 2 1 1 0 1 1 2 1 2
3 3 6 3 2 3 3 4 5 5 2 3 5 10 9 7 7 7 7 6 5 3 1 2 2 3 4 5 4 4 3 3 3 3 2 2 2 1 1 0 1 1 1 1
5 4 2 3 2 2 4 5 5 4 4 2 3 8 5 4 3 3 5 5 5 5 5 3 3 3 3 4 4 4 3 3 2 3 2 2 2 1 1 0 0 1 1 1
3 3 2 2 3 3 5 4 4 2 2 4 0 6 7 4 3 3 4 4 5 5 4 4 3 3 3 4 3 3 3 3 3 3 3 4 3 2 2 1 1 1 1 1
3 2 2 3 4 4 4 1 2 2 1 3 2 3 9 3 4 5 4 4 4 4 4 4 4 3 3 3 3 3 3 3 2 3 3 3 2 2 1 1 1 1 1 1
3 2 2 3 1 2 1 2 3 3 2 3 5 5 8 5 6 5 3 3 2 2 2 2 1 1 1 2 2 3 3 2 2 3 3 3 3 2 2 1 2 1 1 1
3 2 1 1 1 2 3 4 3 4 2 6 2 4 10 6 5 4 4 3 2 2 2 2 2 2 2 2 2 2 3 2 2 3 3 3 3 3 3 3 2 2 1 2
1 4 2 1 4 4 3 5 6 4 5 5 2 7 8 3 2 1 2 2 1 2 2 2 2 2 2 2 2 2 2 2 2 2 2 2 2 2 2 2 2 2 2 3
3 4 2 1 1 5 4 3 4 4 1 3 6 6 7 1 1 0 0 1 1 1 1 1 1 1 2 2 2 3 3 2 2 2 2 2 2 2 2 2 2 2 2 2
4 3 3 2 1 1 3 5 4 3 2 5 6 5 5 4 4 2 2 2 2 1 1 1 1 1 1 2 2 2 2 2 2 2 2 1 2 2 2 2 2 2 2 2
2 2 3 2 3 4 3 3 3 3 3 4 5 8 5 4 4 3 3 2 2 2 2 2 2 1 1 0 1 1 1 1 1 1 1 1 1 2 2 2 2 2 2 2
2 3 3 5 3 2 4 5 6 5 5 4 3 9 3 3 2 2 2 2 2 2 2 2 2 1 1 1 1 1 2 2 2 1 1 1 1 1 1 2 2 2 2 3
3 3 1 5 3 1 1 3 4 3 3 4 5 9 2 1 1 1 2 3 3 2 2 2 1 1 1 1 1 1 2 2 2 1 1 1 1 1 2 2 2 2 2 2
3 3 6 8 6 4 4 4 4 5 4 6 9 10 7 6 4 4 4 3 3 3 3 3 2 2 2 1 1 1 1 1 1 1 2 2 2 2 3 3 3 3 3 3
3 3 5 7 6 5 7 8 8 9 9 9 9 9 11 8 6 5 4 4 3 4 3 3 3 3 2 1 1 1 1 1 1 1 1 2 2 2 2 2 3 3 3 3
3 3 2 5 5 6 9 10 11 12 9 10 10 13 9 6 3 4 4 4 4 5 4 4 4 3 2 2 2 1 1 1 1 1 2 2 2 2 2 3 2 2 2 3
3 4 2 5 4 4 9 9 10 7 8 9 11 11 4 3 4 5 5 5 6 5 5 5 4 4 3 3 2 2 2 1 1 2 2 2 2 2 3 2 2 2 3 3
6 4 2 2 2 7 8 3 6 6 7 7 7 5 5 5 5 4 4 5 5 5 5 4 3 3 2 2 2 1 1 1 1 2 2 2 2 3 3 2 3 3 2 3
6 6 3 2 4 9 8 3 4 4 6 5 7 6 4 2 2 3 3 3 4 4 4 3 3 2 2 2 1 1 1 1 2 2 3 3 3 3 3 3 3 3 2 3
2 4 4 3 3 7 7 3 2 2 6 4 4 4 3 0 2 5 3 3 3 2 2 2 1 1 1 1 1 1 1 2 3 3 3 3 3 4 4 4 3 3 3 3
3 3 5 5 6 10 7 2 3 3 7 3 3 3 3 4 5 4 3 3 3 2 2 1 1 1 2 1 1 1 2 3 4 3 3 3 3 3 4 3 3 3 3 2
8 7 6 5 6 10 4 4 6 7 3 2 2 3 3 4 4 3 3 3 3 2 2 1 1 1 2 1 1 2 3 3 3 2 2 3 3 3 2 3 3 3 3 3
8 9 7 9 9 5 4 6 5 3 3 3 3 3 3 3 4 4 3 3 2 2 2 1 1 2 2 2 2 3 4 3 2 2 3 3 3 2 2 3 3 2 2 2
5 3 4 5 8 5 5 5 4 3 4 3 3 3 3 4 4 4 4 3 2 2 2 2 1 1 3 3 2 3 3 2 2 2 3 3 2 2 2 2 2 2 2 2
6 6 4 6 6 4 5 5 4 3 2 2 2 3 3 3 4 4 4 3 3 2 2 1 2 2 3 3 3 3 2 2 2 2 2 2 2 1 2 1 1 2 2 3
6 8 8 8 7 6 6 4 3 3 4 3 3 3 3 3 4 3 3 3 2 2 2 1 2 2 3 3 3 3 2 2 2 2 2 2 1 1 1 1 1 2 2 2
Wind_Direction
100 88 207 219 207 208 207 223 260 260 269 270 252 266 271 263 242 231 224 216 212 220 216 181 165 159 148 146 146 150 147 147 140 135 142 142 155 149 165 164 140 136 139 135
54 241 236 227 215 212 236 254 270 289 293 264 271 275 269 248 233 216 213 213 210 216 186 157 169 169 166 164 159 151 151 153 159 153 153 149 151 151 173 172 112 130 145 154
195 238 234 199 219 224 241 223 240 262 320 315 313 297 280 275 243 228 213 203 198 199 195 184 169 173 163 167 168 166 165 158 159 144 125 108 86 76 79 20 171 167 163 168
235 258 232 206 229 199 246 231 234 251 316 288 10 289 284 276 281 250 229 205 206 207 196 186 181 185 186 188 172 157 158 154 156 147 150 154 165 183 209 206 198 199 181 192
248 236 198 221 234 197 227 255 234 228 206 290 245 232 280 282 264 257 239 217 213 202 189 189 196 197 192 176 162 154 146 148 153 154 163 167 183 196 182 164 180 217 216 212
252 262 209 213 235 185 173 49 35 49 79 267 231 197 272 245 235 247 242 224 214 196 185 186 182 134 125 127 136 144 142 153 155 161 170 179 185 181 165 188 210 232 229 220
309 291 276 144 75 19 82 89 22 352 340 252 234 212 250 253 246 222 217 222 214 174 162 156 147 144 145 143 148 146 145 165 169 170 181 187 190 181 190 203 209 221 229 232
251 281 249 199 180 183 187 152 165 211 237 279 279 235 254 266 275 241 210 190 166 150 159 162 171 171 170 171 166 153 158 175 180 181 196 191 183 181 197 207 208 218 225 231
191 256 308 289 229 153 157 191 172 149 233 274 266 280 298 274 325 314 203 125 185 193 184 177 179 188 190 184 186 178 174 187 200 198 194 188 182 180 195 214 214 220 234 236
162 250 285 312 28 23 156 151 116 142 197 262 280 265 249 253 246 252 249 240 243 241 222 230 227 221 216 208 195 176 177 195 209 199 198 200 190 194 202 204 215 223 233 234
131 182 297 333 206 200 157 161 153 151 178 194 263 267 233 223 219 222 240 239 229 223 234 250 261 248 225 214 178 180 189 184 183 185 186 186 202 203 210 220 231 230 228 226
141 135 253 257 257 234 193 187 160 172 228 208 230 267 263 218 215 201 231 251 255 250 257 252 247 244 214 216 204 196 201 196 200 190 189 207 213 211 222 239 246 237 234 235
141 130 343 329 322 337 227 202 183 158 159 195 212 261 295 311 306 286 261 268 268 266 264 261 258 251 243 242 228 219 214 211 212 188 190 210 227 234 241 249 256 250 241 243
120 164 195 220 232 204 237 234 197 169 197 225 230 254 283 283 285 285 274 263 263 257 255 249 247 248 249 250 239 230 237 222 216 202 204 218 232 239 244 250 254 253 242 240
120 205 237 254 257 243 242 240 218 211 210 217 241 244 261 262 252 251 250 255 262 265 260 243 241 243 241 253 268 243 244 242 219 211 227 243 253 258 255 255 258 255 248 244
127 190 242 276 265 252 259 251 232 229 225 234 253 265 262 263 249 248 247 244 253 255 255 247 245 237 234 238 246 249 250 249 222 221 240 255 255 257 259 256 259 260 257 253
167 159 192 268 297 317 266 234 213 214 211 203 230 246 258 268 258 245 242 235 237 248 255 246 239 231 234 236 229 231 237 237 227 236 251 255 254 255 258 260 259 256 255 252
164 162 193 261 350 245 247 228 205 216 238 224 238 254 246 245 259 264 239 225 244 251 250 246 236 242 249 246 244 233 251 253 244 248 258 255 250 256 257 246 248 251 248 247
177 167 183 199 247 274 290 264 192 201 265 236 230 251 262 270 315 294 254 233 237 242 243 237 228 230 236 233 219 198 262 272 274 268 266 266 256 256 254 245 244 243 241 250
142 158 172 185 220 247 253 258 202 116 282 255 208 227 239 10 294 275 285 283 272 265 251 233 233 225 237 253 201 187 256 267 269 271 271 272 264 257 252 245 244 243 237 244
159 182 200 207 235 261 255 235 122 168 251 251 200 217 209 220 236 266 298 296 277 269 262 239 211 234 250 256 197 229 261 263 269 276 276 280 278 263 257 247 238 238 242 249
178 179 194 182 215 252 226 147 188 223 245 234 227 227 227 246 265 277 283 280 275 262 265 243 230 273 279 253 204 243 262 271 280 275 276 279 280 270 257 245 239 233 231 239
199 192 187 195 216 239 190 202 228 217 230 248 236 232 225 247 257 264 266 266 263 250 263 264 235 281 298 284 226 240 266 277 282 277 277 279 281 275 261 242 244 234 221 221
238 186 187 242 258 252 247 254 255 233 227 239 236 233 224 239 253 259 261 268 260 257 260 266 259 278 294 298 280 258 271 277 272 271 279 280 273 278 277 257 241 228 217 219
212 174 198 245 265 284 265 241 237 234 231 239 254 241 234 240 258 252 255 258 252 260 265 257 252 261 278 291 290 287 282 275 268 270 277 282 275 280 279 272 252 243 235 224
199 185 189 225 224 210 243 239 215 215 233 240 252 271 261 231 245 255 254 250 247 256 262 260 265 266 280 288 289 292 289 269 253 266 275 273 271 275 272 272 310 303 276 275